Location: Poughquag
(41.6090°N, 73.6820°W)
Time: 02:52:17
(UTC-04:00)

Vanguard 1 - Pass Details

Date: 07 June 2020
Orbit: 650 x 3833 km, 34.2° (Epoch: 06 July)

Event Time Altitude Azimuth Distance (km) Brightness Sun altitude
Rises 13:01:38 0° 280° (W) 7,863 14.7 71.2°
Reaches altitude 10° 13:10:23 10° 264° (W) 6,940 14.6 70.9°
Maximum altitude 13:21:44 16° 234° (SW) 6,172 14.6 70.3°
Drops below altitude 10° 13:32:04 10° 203° (SSW) 6,157 14.6 69.6°
Sets 13:39:10 0° 184° (S) 6,604 14.6 69.0°
